Back to catalog

ARIANE 44LP DEB

AliveHEO
NORAD 25279·DEBRIS·🇫🇷 France

Launched Aug 8, 1989 from Guiana Space Centre

Loading…

Next Passes (next 24 hours)

TLE

FreshSource: Space-Track

Epoch: Sep 14, 2026, 11:58 UTC

1 25279U 89062E   26257.49926757  .00000726  00000-0  16299-2 0  9995
2 25279   7.6872 351.1888 7007596 251.6608  25.4250  2.56027063266310

Track ARIANE 44LP DEB in real time with AllMySat

Download on the App Store